Location: Arrien
(43.3167°N, 0.1500°W)
Time: 03:50:42
(UTC+00:00)

Okean 1-7 Rocket - Pass Details

Date: 15 October 2021
Orbit: 617 x 648 km, 82.5° (Epoch: 02 December)

Event Time Altitude Azimuth Distance (km) Brightness Sun altitude
Rises 19:32:15 0° 347° (NNW) 2,901 7.3 -25.2°
Reaches altitude 10° 19:34:30 10° 344° (NNW) 1,992 6.5 -25.6°
Maximum altitude 19:38:49 57° 266° (W) 730 4.1 -26.4°
Enters shadow 19:39:33 50° 226° (SW) 792 4.2 -26.5°
